When you browse on this site, cookies collect data to enhance your experience and personalize the content and advertising you see.
Visit our Privacy Policy to learn more. By continuing to use the site, you agree to this use of cookies and data.

Stündliche Wetter Batina

Heute, 4 August, Dienstag

Zeit Temperatur Niederschläge Wind Luftdruck Luftfeuchtigkeit
00:00 +25°C° 0.1 mm 1 m/S 669 mmHg 45%
01:00 +24°C° 0 mm 1 m/S 669 mmHg 46%
02:00 +24°C° 0 mm 1 m/S 669 mmHg 46%
03:00 +24°C° 0 mm 1 m/S 669 mmHg 47%
04:00 +23°C° 0 mm 1 m/S 669 mmHg 51%
05:00 +23°C° 0 mm 2 m/S 669 mmHg 56%
06:00 +23°C° 0 mm 2 m/S 669 mmHg 60%
07:00 +25°C° 0 mm 2 m/S 670 mmHg 55%
08:00 +26°C° 0 mm 2 m/S 670 mmHg 51%
09:00 +28°C° 0 mm 2 m/S 671 mmHg 46%
10:00 +29°C° 0 mm 3 m/S 671 mmHg 41%
11:00 +32°C° 0 mm 4 m/S 671 mmHg 37%
12:00 +33°C° 0 mm 5 m/S 671 mmHg 32%
13:00 +33°C° 0 mm 5 m/S 671 mmHg 34%
14:00 +33°C° 0 mm 5 m/S 671 mmHg 35%
15:00 +32°C° 0 mm 5 m/S 670 mmHg 37%
16:00 +30°C° 0.1 mm 5 m/S 670 mmHg 40%
17:00 +29°C° 0.1 mm 5 m/S 670 mmHg 43%
18:00 +28°C° 0.1 mm 5 m/S 670 mmHg 47%
19:00 +26°C° 0 mm 5 m/S 670 mmHg 53%
20:00 +23°C° 0 mm 5 m/S 670 mmHg 60%
21:00 +22°C° 0 mm 5 m/S 670 mmHg 66%
22:00 +21°C° 0 mm 4 m/S 670 mmHg 69%
23:00 +20°C° 0 mm 4 m/S 670 mmHg 71%

Morgen, 5 August, Mittwoch

Zeit Temperatur Niederschläge Wind Luftdruck Luftfeuchtigkeit
00:00 +20°C° 0 mm 3 m/S 670 mmHg 73%
01:00 +20°C° 0 mm 3 m/S 670 mmHg 74%
02:00 +19°C° 0 mm 2 m/S 670 mmHg 74%
03:00 +20°C° 0 mm 1 m/S 669 mmHg 75%
04:00 +21°C° 0 mm 1 m/S 670 mmHg 72%
05:00 +21°C° 0 mm 1 m/S 670 mmHg 70%
06:00 +22°C° 0 mm 1 m/S 670 mmHg 67%
07:00 +23°C° 0 mm 1 m/S 671 mmHg 61%
08:00 +25°C° 0 mm 1 m/S 671 mmHg 55%
09:00 +26°C° 0 mm 1 m/S 671 mmHg 49%
10:00 +28°C° 0 mm 2 m/S 672 mmHg 44%
11:00 +30°C° 0 mm 3 m/S 672 mmHg 39%
12:00 +32°C° 0 mm 4 m/S 672 mmHg 33%
13:00 +32°C° 0 mm 4 m/S 672 mmHg 31%
14:00 +33°C° 0 mm 4 m/S 671 mmHg 29%
15:00 +33°C° 0 mm 4 m/S 671 mmHg 27%
16:00 +32°C° 0 mm 4 m/S 671 mmHg 28%
17:00 +32°C° 0 mm 4 m/S 671 mmHg 29%
18:00 +30°C° 0 mm 4 m/S 671 mmHg 30%
19:00 +28°C° 0 mm 4 m/S 671 mmHg 32%
20:00 +26°C° 0 mm 3 m/S 671 mmHg 35%
21:00 +24°C° 0 mm 3 m/S 671 mmHg 38%
22:00 +23°C° 0 mm 2 m/S 671 mmHg 39%
23:00 +23°C° 0 mm 2 m/S 671 mmHg 41%

übermorgen, 6 August, Donnerstag

Zeit Temperatur Niederschläge Wind Luftdruck Luftfeuchtigkeit
00:00 +22°C° 0 mm 1 m/S 671 mmHg 43%
01:00 +22°C° 0 mm 1 m/S 670 mmHg 45%
02:00 +21°C° 0 mm 1 m/S 670 mmHg 48%
03:00 +21°C° 0 mm 1 m/S 670 mmHg 51%
04:00 +21°C° 0 mm 1 m/S 671 mmHg 49%
05:00 +21°C° 0 mm 1 m/S 671 mmHg 48%
06:00 +20°C° 0 mm 0 m/S 671 mmHg 47%
07:00 +23°C° 0 mm 1 m/S 672 mmHg 43%
08:00 +25°C° 0 mm 1 m/S 673 mmHg 40%
09:00 +27°C° 0 mm 2 m/S 673 mmHg 36%
10:00 +28°C° 0 mm 3 m/S 673 mmHg 32%
11:00 +30°C° 0 mm 3 m/S 673 mmHg 28%
12:00 +32°C° 0 mm 4 m/S 674 mmHg 24%
13:00 +33°C° 0 mm 5 m/S 673 mmHg 23%
14:00 +33°C° 0 mm 5 m/S 673 mmHg 21%
15:00 +33°C° 0 mm 5 m/S 673 mmHg 19%
16:00 +32°C° 0 mm 5 m/S 673 mmHg 21%
17:00 +30°C° 0 mm 5 m/S 672 mmHg 23%
18:00 +29°C° 0 mm 5 m/S 672 mmHg 24%
19:00 +28°C° 0 mm 4 m/S 672 mmHg 30%
20:00 +26°C° 0 mm 4 m/S 672 mmHg 35%
21:00 +24°C° 0 mm 3 m/S 672 mmHg 41%
22:00 +24°C° 0 mm 2 m/S 672 mmHg 43%
23:00 +23°C° 0 mm 2 m/S 672 mmHg 46%

7 August, Freitag

Zeit Temperatur Niederschläge Wind Luftdruck Luftfeuchtigkeit
00:00 +21°C° 0 mm 2 m/S 672 mmHg 48%
01:00 +21°C° 0 mm 1 m/S 672 mmHg 51%
02:00 +21°C° 0 mm 1 m/S 672 mmHg 53%
03:00 +20°C° 0 mm 1 m/S 671 mmHg 55%
04:00 +21°C° 0 mm 1 m/S 672 mmHg 52%
05:00 +20°C° 0 mm 0 m/S 673 mmHg 49%
06:00 +21°C° 0 mm 0 m/S 673 mmHg 46%
07:00 +24°C° 0 mm 1 m/S 674 mmHg 40%
08:00 +26°C° 0 mm 1 m/S 674 mmHg 35%
09:00 +27°C° 0 mm 2 m/S 675 mmHg 29%
10:00 +29°C° 0 mm 3 m/S 675 mmHg 25%
11:00 +30°C° 0 mm 3 m/S 675 mmHg 20%
12:00 +32°C° 0 mm 4 m/S 675 mmHg 16%
13:00 +33°C° 0 mm 5 m/S 675 mmHg 15%
14:00 +33°C° 0 mm 5 m/S 675 mmHg 13%
15:00 +33°C° 0 mm 5 m/S 674 mmHg 12%
16:00 +32°C° 0 mm 5 m/S 674 mmHg 15%
17:00 +30°C° 0 mm 5 m/S 674 mmHg 19%
18:00 +29°C° 0 mm 5 m/S 674 mmHg 22%
19:00 +28°C° 0 mm 4 m/S 674 mmHg 30%
20:00 +26°C° 0 mm 4 m/S 674 mmHg 38%
21:00 +24°C° 0 mm 3 m/S 673 mmHg 47%
22:00 +22°C° 0 mm 3 m/S 673 mmHg 50%
23:00 +21°C° 0 mm 2 m/S 673 mmHg 54%

8 August, Samstag

Zeit Temperatur Niederschläge Wind Luftdruck Luftfeuchtigkeit
00:00 +21°C° 0 mm 2 m/S 673 mmHg 58%
01:00 +21°C° 0 mm 1 m/S 673 mmHg 59%
02:00 +21°C° 0 mm 1 m/S 672 mmHg 60%
03:00 +20°C° 0 mm 1 m/S 672 mmHg 62%
04:00 +21°C° 0 mm 1 m/S 672 mmHg 57%
05:00 +22°C° 0 mm 1 m/S 673 mmHg 52%
06:00 +21°C° 0 mm 0 m/S 673 mmHg 47%
07:00 +25°C° 0 mm 1 m/S 674 mmHg 40%
08:00 +26°C° 0 mm 1 m/S 675 mmHg 32%
09:00 +28°C° 0 mm 2 m/S 675 mmHg 24%
10:00 +29°C° 0 mm 3 m/S 675 mmHg 22%
11:00 +32°C° 0 mm 4 m/S 675 mmHg 19%
12:00 +33°C° 0 mm 5 m/S 675 mmHg 17%
13:00 +34°C° 0 mm 5 m/S 675 mmHg 17%
14:00 +34°C° 0 mm 6 m/S 675 mmHg 16%
15:00 +34°C° 0 mm 6 m/S 674 mmHg 16%
16:00 +33°C° 0 mm 6 m/S 674 mmHg 19%
17:00 +32°C° 0 mm 6 m/S 674 mmHg 22%
18:00 +30°C° 0 mm 6 m/S 673 mmHg 25%
19:00 +28°C° 0 mm 5 m/S 673 mmHg 31%
20:00 +27°C° 0 mm 4 m/S 673 mmHg 36%
21:00 +25°C° 0 mm 2 m/S 673 mmHg 42%
22:00 +24°C° 0 mm 2 m/S 673 mmHg 44%
23:00 +24°C° 0 mm 2 m/S 672 mmHg 46%

9 August, Sonntag

Zeit Temperatur Niederschläge Wind Luftdruck Luftfeuchtigkeit
00:00 +23°C° 0 mm 2 m/S 672 mmHg 48%
01:00 +22°C° 0 mm 1 m/S 672 mmHg 46%
02:00 +22°C° 0 mm 1 m/S 671 mmHg 45%
03:00 +19°C° 0 mm 0 m/S 671 mmHg 44%
04:00 +20°C° 0 mm 0 m/S 671 mmHg 40%
05:00 +22°C° 0 mm 0 m/S 672 mmHg 37%
06:00 +23°C° 0 mm 0 m/S 673 mmHg 33%
07:00 +27°C° 0 mm 1 m/S 673 mmHg 29%
08:00 +28°C° 0 mm 1 m/S 673 mmHg 25%
09:00 +30°C° 0 mm 2 m/S 674 mmHg 20%
10:00 +31°C° 0 mm 2 m/S 674 mmHg 19%
11:00 +33°C° 0 mm 3 m/S 674 mmHg 19%
12:00 +35°C° 0 mm 4 m/S 674 mmHg 18%
13:00 +35°C° 0 mm 4 m/S 673 mmHg 18%
14:00 +35°C° 0 mm 5 m/S 673 mmHg 17%
15:00 +36°C° 0 mm 5 m/S 672 mmHg 17%
16:00 +35°C° 0 mm 5 m/S 672 mmHg 19%
17:00 +34°C° 0 mm 5 m/S 672 mmHg 21%
18:00 +33°C° 0 mm 5 m/S 671 mmHg 23%
19:00 +30°C° 0 mm 4 m/S 671 mmHg 27%
20:00 +28°C° 0 mm 3 m/S 671 mmHg 31%
21:00 +27°C° 0 mm 3 m/S 671 mmHg 35%
22:00 +26°C° 0 mm 2 m/S 671 mmHg 36%
23:00 +25°C° 0 mm 2 m/S 671 mmHg 37%
Mehr zeigen